Temp
12 12 12 12 12 13 13 13 13 13 13 13 13 13 13 13 13 14 14 13 14 13 12 13 13 13 13 13 13 13 13 14 14 14 13 13 13 13 12 13 13 13 13
14 13 13 13 13 13 13 13 13 13 14 13 13 12 12 13 13 12 11 11 11 11 11 12 14 14 14 13 13 12 12 13 13 13 13 13 13 13 13 13 12 12 13
13 13 13 13 12 13 13 13 13 13 12 13 12 13 12 12 12 11 11 11 11 11 11 11 11 12 12 12 13 12 13 13 12 13 13 13 13 13 13 13 14 12 12
13 13 13 12 12 12 12 12 12 12 12 12 13 13 13 12 12 11 11 10 10 11 10 10 10 11 10 10 11 11 12 13 13 11 12 13 12 13 14 13 13 12 12
12 12 12 12 12 12 12 12 11 11 11 11 11 12 12 12 10 10 11 10 10 9 9 10 9 9 9 10 10 10 10 11 12 14 13 13 13 12 13 13 13 14 12
12 12 12 11 11 11 11 11 11 10 8 10 11 11 11 10 10 10 10 9 8 8 8 7 7 7 8 7 8 9 9 10 10 11 12 12 12 13 12 13 13 13 13
11 11 10 10 11 11 10 10 10 9 8 10 11 12 11 9 9 9 8 7 7 6 6 5 5 6 6 7 7 8 8 9 10 10 10 11 11 11 12 12 13 12 12
10 10 10 10 10 10 10 9 9 8 6 7 8 9 9 9 9 8 8 7 6 6 6 5 4 4 5 4 5 7 7 8 9 10 10 10 11 10 11 11 11 11 12
10 10 10 10 9 9 9 8 8 8 6 5 5 5 5 5 8 8 7 7 6 5 5 5 4 4 3 2 2 3 5 7 8 8 8 9 10 10 11 11 11 12 13
9 9 9 9 8 8 7 8 7 7 6 5 4 4 4 3 4 5 7 5 5 5 4 3 3 3 3 2 1 2 3 5 7 8 9 9 9 9 10 11 10 11 12
8 8 8 7 7 7 7 7 7 6 6 5 4 3 4 3 3 3 3 4 4 4 4 3 2 1 1 0 1 1 1 3 4 6 7 8 8 9 9 10 10 10 10
8 7 7 7 6 6 6 6 6 5 4 4 3 2 2 2 1 1 1 1 1 4 4 3 2 1 -0 -1 -1 -0 0 -1 1 2 4 6 7 8 8 8 9 9 10
7 7 7 6 6 6 5 5 4 4 3 2 2 2 -0 -0 -1 -1 -0 -0 -0 3 3 2 1 0 -0 -2 -2 -2 -3 -2 -2 -1 -0 1 2 4 6 6 8 8 8
6 5 6 5 5 5 4 4 3 2 2 1 1 2 -0 -1 -1 -1 -2 -2 -1 1 2 1 1 -0 -1 -2 -3 -2 -4 -4 -4 -4 -3 -3 -2 -1 1 3 4 6 7
5 5 5 5 4 4 3 3 2 2 1 0 -2 -0 -1 -2 -2 -3 -3 -3 -3 -2 -1 -0 -1 -1 -2 -3 -3 -4 -5 -4 -4 -4 -4 -3 -2 -2 -2 -1 1 3 5
5 4 4 4 3 3 3 1 1 1 -0 -1 -3 -3 -2 -2 -3 -3 -3 -3 -3 -3 -3 -2 -2 -2 -3 -3 -4 -5 -5 -5 -5 -5 -4 -3 -2 -1 -1 -1 -0 1 2
3 4 4 3 2 3 2 1 -0 -1 -3 -3 -3 -3 -2 -3 -4 -4 -4 -4 -4 -4 -4 -4 -3 -3 -3 -4 -4 -5 -6 -6 -6 -5 -5 -5 -4 -4 -3 -2 -1 0 1
1 3 2 2 2 1 -0 -1 -1 -2 -2 -2 -3 -3 -2 -2 -5 -5 -5 -5 -5 -5 -5 -5 -4 -4 -4 -5 -5 -6 -6 -6 -6 -7 -6 -6 -6 -6 -6 -5 -5 -4 -2
1 1 1 1 0 -2 -2 -2 -2 -2 -2 -3 -5 -4 -3 -3 -3 -4 -6 -6 -6 -5 -6 -5 -5 -5 -6 -6 -6 -7 -7 -7 -7 -7 -7 -7 -7 -6 -5 -5 -5 -4 -3
-1 -0 -0 -1 -2 -3 -2 -3 -3 -5 -6 -5 -6 -4 -4 -4 -4 -4 -5 -5 -5 -6 -7 -7 -6 -7 -8 -7 -8 -8 -8 -8 -7 -7 -7 -7 -7 -7 -6 -6 -6 -6 -5
-3 -2 -2 -4 -4 -2 -2 -3 -6 -6 -7 -7 -8 -7 -6 -5 -5 -6 -5 -5 -6 -6 -7 -8 -9 -9 -9 -7 -8 -9 -10 -8 -7 -8 -7 -7 -8 -8 -7 -7 -7 -7 -7
-4 -5 -5 -5 -2 -0 -2 -4 -6 -6 -5 -5 -6 -9 -8 -7 -6 -6 -6 -7 -7 -7 -7 -9 -10 -10 -10 -9 -9 -11 -10 -9 -9 -8 -8 -8 -8 -9 -8 -8 -8 -8 -8
-5 -5 -4 -4 -2 -2 -3 -4 -5 -4 -4 -5 -5 -7 -8 -6 -7 -6 -7 -7 -8 -8 -9 -9 -9 -10 -10 -10 -10 -10 -10 -10 -9 -8 -8 -9 -9 -9 -9 -9 -9 -8 -9
-5 -4 -4 -4 -3 -3 -3 -4 -5 -6 -5 -5 -6 -7 -7 -7 -7 -7 -7 -8 -8 -9 -10 -10 -11 -11 -12 -12 -11 -11 -10 -9 -9 -9 -9 -9 -9 -9 -9 -9 -10 -11 -9
-5 -4 -5 -4 -4 -4 -4 -5 -6 -6 -6 -6 -8 -8 -8 -7 -7 -8 -8 -9 -9 -9 -10 -12 -12 -14 -13 -12 -10 -10 -9 -9 -10 -10 -10 -11 -11 -10 -10 -10 -10 -11 -11
-5 -5 -5 -5 -4 -5 -6 -6 -7 -9 -8 -9 -9 -8 -9 -7 -8 -8 -8 -9 -10 -11 -11 -13 -14 -14 -14 -12 -12 -11 -11 -11 -11 -11 -12 -12 -11 -10 -10 -12 -11 -12 -12
Height
1525 1525 1527 1526 1526 1526 1526 1526 1525 1526 1526 1525 1525 1524 1523 1523 1523 1523 1524 1523 1523 1522 1521 1522 1522 1523 1525 1527 1528 1530 1531 1531 1532 1532 1534 1535 1537 1539 1542 1545 1548 1551 1554
1523 1523 1524 1524 1524 1525 1525 1524 1524 1524 1523 1523 1523 1522 1520 1519 1520 1520 1520 1519 1518 1518 1518 1518 1519 1520 1521 1522 1523 1524 1525 1525 1526 1527 1528 1529 1531 1532 1534 1537 1540 1546 1549
1523 1523 1523 1523 1522 1522 1522 1523 1522 1522 1521 1519 1519 1519 1519 1517 1517 1518 1518 1517 1514 1515 1514 1515 1514 1514 1515 1516 1516 1517 1519 1520 1520 1521 1521 1524 1524 1526 1528 1532 1535 1539 1542
1520 1521 1522 1522 1522 1522 1522 1521 1520 1520 1518 1518 1515 1515 1515 1515 1515 1516 1516 1512 1511 1510 1511 1512 1512 1511 1512 1512 1512 1512 1512 1512 1513 1512 1513 1516 1518 1520 1523 1527 1529 1533 1535
1519 1519 1520 1520 1519 1519 1519 1518 1518 1516 1514 1513 1513 1511 1511 1510 1512 1515 1512 1509 1508 1509 1507 1508 1508 1507 1507 1509 1508 1508 1508 1506 1504 1505 1508 1509 1509 1511 1514 1518 1522 1525 1527
1518 1519 1520 1520 1519 1519 1518 1517 1516 1514 1513 1511 1509 1508 1508 1509 1512 1511 1511 1507 1507 1507 1507 1506 1504 1504 1504 1504 1503 1502 1503 1501 1501 1500 1501 1502 1503 1505 1506 1509 1512 1512 1518
1516 1516 1517 1517 1517 1516 1516 1515 1514 1514 1513 1511 1508 1507 1507 1509 1512 1512 1509 1507 1507 1506 1506 1505 1502 1503 1502 1500 1500 1497 1496 1496 1495 1495 1494 1494 1497 1496 1499 1502 1504 1507 1511
1514 1515 1516 1516 1515 1515 1514 1514 1513 1512 1511 1510 1510 1507 1508 1510 1511 1512 1511 1508 1507 1507 1506 1505 1503 1501 1501 1497 1493 1495 1493 1490 1490 1490 1490 1485 1488 1490 1490 1492 1497 1498 1501
1512 1512 1514 1514 1514 1513 1512 1511 1512 1511 1510 1511 1510 1509 1509 1510 1511 1511 1510 1507 1505 1504 1504 1504 1503 1502 1498 1494 1492 1489 1488 1487 1485 1484 1484 1479 1480 1482 1484 1485 1487 1488 1491
1511 1513 1512 1512 1512 1512 1511 1510 1509 1509 1510 1509 1509 1510 1510 1512 1511 1510 1508 1506 1506 1504 1503 1502 1501 1498 1497 1494 1490 1488 1486 1480 1478 1477 1478 1475 1474 1476 1477 1479 1481 1482 1483
1508 1509 1509 1509 1510 1511 1511 1510 1509 1507 1508 1508 1508 1509 1508 1508 1510 1509 1507 1504 1503 1504 1504 1499 1499 1500 1496 1492 1489 1487 1480 1475 1472 1471 1469 1468 1468 1469 1470 1472 1473 1475 1475
1505 1506 1507 1508 1508 1508 1508 1506 1508 1506 1505 1505 1506 1505 1506 1507 1508 1508 1506 1504 1503 1503 1504 1498 1498 1497 1497 1489 1487 1484 1477 1475 1469 1467 1463 1462 1460 1463 1463 1464 1466 1466 1469
1503 1504 1505 1506 1505 1505 1505 1503 1506 1506 1505 1504 1504 1505 1505 1505 1506 1506 1504 1501 1501 1502 1503 1499 1497 1495 1492 1488 1484 1482 1478 1474 1467 1463 1460 1458 1456 1456 1457 1459 1460 1461 1462
1501 1502 1503 1503 1503 1502 1503 1502 1503 1504 1502 1502 1502 1503 1504 1503 1501 1500 1503 1502 1498 1500 1501 1496 1496 1493 1488 1486 1482 1480 1478 1471 1468 1464 1460 1456 1455 1453 1453 1455 1455 1455 1456
1498 1499 1500 1500 1501 1501 1501 1501 1501 1502 1501 1501 1503 1501 1500 1500 1501 1502 1498 1497 1500 1500 1497 1494 1494 1491 1488 1486 1481 1479 1476 1470 1466 1463 1458 1456 1456 1453 1452 1453 1452 1450 1451
1496 1495 1496 1499 1498 1498 1498 1501 1500 1500 1498 1500 1500 1500 1497 1499 1499 1497 1497 1495 1497 1497 1496 1494 1492 1491 1487 1483 1480 1478 1475 1471 1466 1463 1459 1457 1455 1452 1451 1451 1449 1447 1446
1493 1492 1492 1494 1495 1496 1498 1498 1499 1499 1497 1498 1497 1497 1496 1497 1498 1499 1494 1494 1493 1494 1491 1489 1489 1489 1485 1479 1478 1478 1475 1470 1467 1464 1461 1457 1453 1450 1448 1448 1446 1444 1442
1492 1490 1490 1492 1494 1492 1495 1497 1495 1496 1495 1495 1494 1493 1492 1490 1494 1496 1492 1490 1490 1489 1487 1486 1486 1486 1481 1476 1477 1477 1473 1470 1468 1466 1462 1458 1455 1449 1447 1446 1444 1442 1440
1488 1487 1489 1489 1493 1492 1493 1493 1494 1494 1494 1494 1493 1493 1491 1488 1490 1492 1488 1485 1484 1483 1484 1483 1483 1481 1476 1473 1472 1473 1473 1470 1470 1467 1463 1458 1455 1451 1448 1447 1447 1442 1439
1485 1486 1485 1489 1490 1490 1489 1491 1494 1494 1494 1493 1491 1490 1489 1487 1488 1487 1483 1481 1479 1479 1479 1479 1478 1476 1473 1471 1470 1470 1471 1468 1469 1465 1461 1462 1457 1453 1450 1450 1447 1444 1440
1485 1484 1484 1488 1487 1485 1487 1490 1493 1493 1493 1492 1491 1486 1487 1485 1485 1483 1480 1478 1477 1476 1474 1475 1473 1472 1469 1467 1465 1465 1467 1467 1465 1463 1461 1462 1459 1454 1454 1454 1447 1445 1443
1481 1481 1484 1484 1482 1483 1486 1490 1490 1490 1490 1487 1487 1489 1486 1485 1483 1481 1478 1476 1475 1474 1473 1472 1470 1469 1467 1465 1464 1463 1464 1463 1463 1462 1461 1460 1459 1457 1456 1453 1452 1449 1447
1476 1479 1478 1479 1481 1482 1485 1486 1486 1487 1487 1486 1485 1487 1485 1483 1481 1479 1477 1475 1474 1473 1473 1472 1470 1469 1467 1465 1463 1462 1461 1461 1462 1461 1460 1460 1460 1460 1457 1455 1452 1451 1450
1475 1476 1476 1477 1479 1481 1482 1484 1484 1484 1484 1483 1484 1485 1484 1482 1479 1478 1476 1475 1474 1474 1473 1472 1471 1469 1468 1466 1463 1461 1461 1459 1461 1461 1459 1459 1458 1459 1456 1454 1453 1451 1448
1471 1472 1473 1474 1477 1479 1479 1482 1482 1481 1481 1481 1484 1483 1482 1480 1479 1477 1476 1475 1475 1474 1473 1473 1472 1472 1470 1468 1465 1462 1460 1460 1461 1460 1459 1459 1459 1459 1457 1455 1455 1451 1447
1468 1470 1470 1470 1474 1476 1477 1480 1480 1479 1479 1481 1481 1482 1481 1480 1478 1477 1476 1476 1476 1475 1475 1475 1475 1474 1472 1471 1468 1465 1463 1463 1461 1462 1461 1461 1460 1458 1459 1458 1456 1453 1451
Wind_Speed
9 8 5 6 6 6 8 8 10 11 12 12 13 13 13 14 14 15 17 23 26 26 25 24 25 23 23 25 24 23 24 25 25 26 28 26 27 29 26 26 26 28 29
8 7 6 5 4 4 5 7 8 9 10 11 13 14 16 16 13 12 11 15 17 17 17 25 26 27 27 27 26 26 26 26 27 26 27 29 29 31 28 28 27 31 32
6 4 2 1 3 6 8 10 11 11 12 12 13 15 16 14 13 11 13 12 14 14 17 17 16 18 24 26 26 24 26 27 31 30 29 30 31 32 31 33 36 35 34
6 3 1 2 4 6 8 10 12 13 13 14 14 14 15 15 11 9 9 14 14 16 15 17 20 20 18 17 19 19 19 24 26 28 32 33 31 33 34 34 31 35 36
5 3 0 2 5 7 11 13 14 15 15 17 19 17 12 8 6 3 9 14 16 14 18 20 18 20 20 18 18 18 20 20 25 30 32 33 37 35 35 36 36 42 37
6 3 1 3 5 7 9 10 12 12 11 17 17 16 12 4 5 3 9 12 15 19 17 14 16 15 14 15 17 19 19 21 23 22 26 32 35 38 37 36 42 35 46
5 3 1 3 5 6 8 10 11 11 12 15 15 10 9 3 3 2 6 10 11 13 17 18 15 12 12 12 14 15 19 22 20 20 23 27 26 33 32 37 35 38 42
5 2 1 2 3 6 7 8 8 8 7 14 14 7 4 2 6 1 6 6 6 6 8 10 15 16 17 15 17 19 19 19 20 19 24 24 22 26 29 31 32 32 40
6 5 4 2 2 3 5 7 8 8 7 8 11 9 5 4 5 5 8 8 12 12 10 9 9 5 6 7 13 17 20 23 24 22 22 19 23 26 26 27 31 36 38
8 5 4 2 2 3 5 6 6 6 4 4 3 4 3 4 6 9 2 12 9 12 12 8 2 5 9 10 17 22 26 27 26 29 30 26 21 26 29 30 28 32 33
7 6 4 2 2 3 4 6 6 5 5 3 3 3 1 5 2 5 12 14 7 7 9 9 10 10 10 11 17 18 20 21 22 28 32 31 25 22 24 27 30 28 31
8 6 4 3 3 4 5 5 6 5 3 3 1 2 3 0 5 3 10 11 14 4 7 9 11 13 15 16 19 22 21 23 21 22 23 29 29 28 27 23 21 24 30
7 6 4 4 3 4 4 4 5 5 4 4 3 1 3 2 3 4 7 9 11 4 6 3 9 11 18 19 23 24 18 23 24 20 17 17 20 22 28 29 27 22 20
8 5 5 6 4 4 4 4 4 4 4 3 4 3 2 5 4 3 5 10 11 3 4 4 9 16 19 18 23 23 17 21 20 20 17 17 16 17 15 19 25 25 26
7 8 6 4 5 4 3 4 4 4 4 3 4 5 1 6 2 4 5 3 6 7 15 10 12 15 17 13 19 17 17 21 20 20 15 16 17 16 17 14 13 22 28
9 6 5 7 5 3 2 4 6 4 2 3 3 6 4 5 3 5 6 3 4 7 11 14 12 13 17 14 15 15 14 18 13 10 14 15 15 15 16 17 17 16 18
9 9 9 6 5 4 4 4 3 2 0 2 3 7 7 4 3 6 6 2 7 7 11 14 9 9 13 15 14 13 12 16 10 10 12 16 17 16 17 19 20 18 17
11 10 8 7 7 6 5 4 4 3 3 4 4 8 7 4 5 11 3 4 6 8 9 11 11 10 11 14 10 11 9 11 11 13 12 14 17 18 19 19 20 21 20
13 10 9 8 7 6 4 1 2 3 4 4 5 9 8 7 8 7 2 8 9 6 3 8 6 9 11 17 7 5 9 9 5 4 13 19 19 17 18 17 17 17 18
11 11 10 10 8 7 4 3 2 1 2 3 5 10 9 8 7 4 6 6 6 2 2 4 7 6 12 14 4 4 11 9 8 7 8 11 16 18 17 18 19 18 18
11 10 9 9 10 9 6 6 6 7 6 3 3 10 11 9 4 4 4 6 5 2 2 1 6 6 11 11 9 8 9 4 8 8 7 6 12 16 22 20 21 19 18
17 13 11 11 11 5 8 11 9 9 8 7 4 4 12 8 7 3 5 5 5 6 5 2 5 6 9 12 7 8 7 9 9 12 4 6 10 14 18 22 23 19 17
19 19 17 15 7 6 8 12 15 10 6 6 4 5 9 7 6 6 5 6 6 7 8 7 7 9 11 13 10 8 8 12 7 12 1 5 2 8 13 19 22 18 17
20 19 17 15 11 9 9 10 12 10 6 5 2 4 6 5 4 4 4 5 6 6 8 10 10 11 15 15 9 6 7 6 3 10 5 5 7 10 7 14 21 18 16
17 16 15 13 10 9 7 7 7 6 4 3 1 3 4 4 3 3 2 3 6 7 8 11 14 14 14 19 17 6 4 7 8 9 6 9 11 9 6 16 20 13 19
17 15 13 12 11 8 7 7 7 6 3 1 3 2 3 3 4 4 5 5 4 8 10 11 9 9 11 15 20 21 18 11 6 4 10 9 11 8 4 16 16 15 19
Wind_Direction
215 218 235 244 269 286 298 299 297 304 304 302 300 299 294 288 285 284 269 265 263 273 272 270 269 271 269 262 256 255 258 260 257 257 255 249 249 248 245 245 242 240 237
221 217 221 246 288 318 320 319 320 314 313 308 306 306 302 307 305 297 295 285 287 288 289 268 271 271 274 271 274 261 258 255 255 256 256 255 251 250 242 239 242 244 241
208 225 195 12 6 346 339 334 325 320 316 310 306 300 300 296 294 297 299 299 281 283 280 279 280 278 275 274 270 269 265 261 255 253 253 257 254 253 251 242 255 244 242
173 181 169 35 352 343 338 336 334 328 328 318 310 307 302 299 300 324 360 272 267 268 270 275 279 281 286 290 281 276 260 254 255 253 251 250 255 253 251 244 242 247 243
175 178 156 352 347 350 344 346 345 342 341 327 330 327 320 316 314 319 266 256 260 272 284 282 284 287 285 276 282 280 273 264 256 256 253 250 249 249 248 246 243 245 244
177 181 97 21 9 359 349 348 346 350 346 335 338 341 336 1 47 308 262 271 295 301 313 305 296 297 294 288 275 272 272 266 269 272 270 264 259 256 250 244 241 245 238
162 154 73 28 351 350 353 357 359 2 343 347 346 12 50 169 195 178 316 326 344 3 357 350 340 317 312 297 289 276 271 265 262 267 268 275 278 267 263 251 250 248 241
175 155 275 306 324 341 353 354 355 10 16 358 8 30 5 136 44 159 347 2 23 322 313 343 350 346 342 334 293 285 279 276 271 272 271 270 272 271 264 249 245 252 247
195 206 231 268 293 319 347 358 358 1 20 5 17 37 15 346 53 107 68 341 325 336 323 296 337 3 27 3 313 291 282 274 273 270 267 265 261 257 259 257 248 250 245
207 220 239 255 309 338 342 346 351 351 359 8 7 63 59 2 347 317 172 357 22 343 2 341 328 274 267 272 293 296 299 288 273 267 267 265 262 255 255 252 258 266 258
203 221 232 253 295 321 331 338 345 345 344 351 13 359 34 134 237 307 317 318 325 18 356 314 338 316 334 334 314 337 329 313 291 273 266 262 259 258 254 260 261 255 246
208 221 238 263 292 315 320 332 328 335 333 347 343 25 15 120 280 330 303 324 311 356 348 282 322 325 335 343 330 341 339 333 325 304 287 269 266 256 254 252 254 263 253
213 227 243 261 279 294 308 323 323 328 344 347 354 20 68 322 314 311 308 303 334 358 43 334 3 331 332 336 333 342 343 327 333 331 322 309 295 280 262 262 253 253 243
222 221 244 247 269 297 300 313 317 325 337 339 328 318 142 280 276 282 314 331 341 322 3 44 13 346 337 340 325 339 342 334 343 344 342 347 349 342 323 286 271 256 244
215 228 238 269 275 277 301 305 308 304 312 332 297 309 196 259 285 322 306 318 320 323 311 288 347 337 334 337 326 342 343 327 335 333 338 345 347 348 346 337 309 273 263
222 215 237 252 255 263 293 260 279 296 310 336 312 320 327 318 1 324 301 290 273 281 293 297 322 330 327 319 333 349 349 341 5 350 342 339 333 333 332 327 317 308 288
209 220 229 228 234 249 250 251 280 304 94 311 338 311 316 338 306 270 274 284 275 286 291 299 328 337 330 320 338 350 352 349 16 4 353 351 350 350 341 322 312 311 309
214 222 216 221 229 227 220 226 201 267 274 284 293 283 292 278 249 253 244 277 268 268 293 323 322 338 317 313 329 5 1 352 6 8 357 357 359 2 357 354 344 341 334
212 207 212 214 216 196 200 190 241 272 284 272 263 284 303 304 275 281 165 260 260 274 330 303 334 305 300 298 324 59 356 358 12 9 22 7 5 18 14 5 354 354 348
205 204 203 208 196 178 178 177 228 254 286 302 298 301 317 322 302 295 264 277 299 254 261 276 327 302 294 304 323 47 18 359 353 17 67 15 3 17 20 18 15 13 12
202 205 198 185 183 202 206 194 186 203 209 245 315 313 320 337 331 316 323 325 337 313 272 129 288 294 311 341 10 46 14 28 335 25 81 42 9 9 23 21 22 19 24
190 195 190 202 222 226 203 188 189 234 228 226 236 263 295 322 327 337 339 347 356 0 349 348 307 336 341 358 16 40 23 31 350 18 66 30 51 8 12 18 14 19 30
206 196 201 220 228 207 209 208 218 245 268 262 266 262 285 338 345 344 353 358 14 17 17 12 13 19 15 10 14 38 65 25 330 356 62 13 27 49 1 5 7 10 19
211 205 206 216 227 227 224 225 225 241 251 269 300 292 320 342 355 354 1 4 21 35 42 41 42 40 29 18 11 51 48 1 272 337 8 24 55 72 356 1 5 7 17
211 208 206 218 224 221 221 214 217 229 237 264 256 322 333 356 11 25 11 39 42 36 58 51 43 37 30 31 37 60 138 144 52 6 41 52 44 79 34 353 4 11 24
212 209 206 214 225 208 206 214 205 209 226 262 302 344 1 19 33 42 45 49 53 66 65 59 46 32 31 41 45 54 57 64 68 49 51 53 56 62 48 2 360 21 30